Location: Boulder, CO
(40.0083°N, 105.2472°W)
Time: 17:52:24
(UTC-06:00)

SORCE - Visible Passes

Search period start: 16 August 2017 00:00
Search period end: 26 August 2017 00:00
Orbit: 585 x 619 km, 40.0° (Epoch: 15 August)

Date Brightness Start Highest point End Pass type
(mag) Time Alt. Az. Time Alt. Az. Time Alt. Az.
16 Aug 8.5 04:11:23 10° SSE 04:12:14 11° SE 04:13:11 10° SE visible
17 Aug 7.9 04:21:49 17° SSE 04:22:50 18° SE 04:25:56 10° ESE visible
18 Aug 7.2 04:32:12 25° S 04:33:29 29° SSE 04:37:24 10° E visible
19 Aug 6.6 04:42:33 30° SSW 04:44:14 43° SSE 04:48:32 10° E visible
20 Aug 8.5 03:16:11 13° ESE 03:16:11 13° ESE 03:16:58 10° E visible
20 Aug 6.2 04:52:52 28° SW 04:55:03 61° SSE 04:59:32 10° E visible
21 Aug 8.0 03:26:29 21° ESE 03:26:29 21° ESE 03:28:20 10° E visible
21 Aug 6.0 05:03:10 23° WSW 05:05:57 78° S 05:10:29 10° E visible
22 Aug 7.4 03:36:47 31° ESE 03:36:47 31° ESE 03:39:26 10° E visible
22 Aug 6.0 05:13:28 17° W 05:16:53 89° SSE 05:21:26 10° E visible
23 Aug 6.7 03:47:05 46° ESE 03:47:05 46° ESE 03:50:25 10° E visible
23 Aug 6.0 05:23:47 13° W 05:27:50 89° N 05:32:23 10° E visible
24 Aug 6.2 03:57:25 66° ESE 03:57:25 66° ESE 04:01:22 10° E visible
24 Aug 6.0 05:34:17 10° W 05:38:46 85° S 05:43:18 10° E visible
25 Aug 5.9 04:07:48 89° ENE 04:07:48 89° ENE 04:12:18 10° E visible
25 Aug 6.0 05:45:13 10° W 05:49:41 71° SSW 05:54:12 10° ESE visible
